Printer-friendly version

IAU Minor Planet Center

Minor Planet Center

MPEC 2004-T37 : 2004 TL10

The following Minor Planet Electronic Circular may be linked-to from your own Web pages, but must not otherwise be redistributed electronically.


Read MPEC 2004-T36 Read MPEC 2004-T38


M.P.E.C. 2004-T37                                Issued 2004 Oct.  9, 15:20 UT

     The Minor Planet Electronic Circulars contain information on unusual
         minor planets and routine data on comets.  They are published
   on behalf of Commission 20 of the International Astronomical Union by the
          Minor Planet Center, Smithsonian Astrophysical Observatory,
                          Cambridge, MA 02138, U.S.A.

                  Supported in part by the Brinson Foundation
             Prepared using the Tamkin Foundation Computer Network

                              MPC@CFA.HARVARD.EDU
          URL http://cfa-www.harvard.edu/iau/mpc.html  ISSN 1523-6714

                                   2004 TL10

Observations:
     K04T10L* C2004 10 08.36883 04 58 47.91 +35 48 06.9          19.3   ET037704
     K04T10L  C2004 10 08.37968 04 58 42.29 +35 48 44.9          19.3   ET037704
     K04T10L  C2004 10 08.39053 04 58 36.60 +35 49 23.4          19.4   ET037704
     K04T10L  C2004 10 08.40139 04 58 31.10 +35 50 00.6          19.7   ET037704
     K04T10L  C2004 10 09.02290 04 53 36.68 +36 23 17.9                 ET037J95
     K04T10L  C2004 10 09.03145 04 53 32.35 +36 23 42.6          18.8 R ET037J95
     K04T10L  C2004 10 09.06097 04 53 18.41 +36 25 35.0          18.8 R ET037176
     K04T10L  C2004 10 09.06190 04 53 17.94 +36 25 38.2          18.7 R ET037176
     K04T10L  C2004 10 09.06282 04 53 17.48 +36 25 41.3          18.3 R ET037176
     K04T10L  C2004 10 09.06389 04 53 16.94 +36 25 45.0          18.8 R ET037176
     K04T10L  C2004 10 09.20086 04 52 16.19 +36 32 20.5          18.2 R ET037649
     K04T10L  C2004 10 09.20264 04 52 15.39 +36 32 27.8          18.0 R ET037649
     K04T10L  C2004 10 09.20441 04 52 14.62 +36 32 33.0          18.5 R ET037649
     K04T10L  C2004 10 09.20619 04 52 13.79 +36 32 38.9          18.4 R ET037649
     K04T10L  C2004 10 09.20796 04 52 12.92 +36 32 44.4          18.4 R ET037649
     K04T10L  C2004 10 09.24651 04 51 55.58 +36 34 49.0          18.1 R ET037H06
     K04T10L  C2004 10 09.24884 04 51 54.61 +36 34 53.5          18.1 R ET037G90
     K04T10L  C2004 10 09.25034 04 51 53.74 +36 35 01.6          18.1 R ET037H06
     K04T10L  C2004 10 09.25197 04 51 53.15 +36 35 03.4          18.2 R ET037G90
     K04T10L  C2004 10 09.25412 04 51 52.00 +36 35 14.2          18.3 R ET037H06
     K04T10L  C2004 10 09.25511 04 51 51.66 +36 35 14.3          18.0 R ET037G90
     K04T10L  C2004 10 09.30864 04 51 26.12 +36 38 07.7          18.2 R ET037H06
     K04T10L  C2004 10 09.31861 04 51 21.36 +36 38 40.1          18.6 R ET037H06
     K04T10L  C2004 10 09.32935 04 51 16.16 +36 39 13.7          18.6 R ET037H06
     K04T10L  C2004 10 09.41194 04 50 36.05 +36 43 29.3                 ET037711
     K04T10L  C2004 10 09.41607 04 50 34.11 +36 43 42.5                 ET037711
     K04T10L  C2004 10 09.42020 04 50 31.97 +36 43 54.3                 ET037711
     K04T10L  C2004 10 09.46053 04 50 12.99 +36 45 51.1          18.8 R ET037854

Observer details:
176 Observatori Astronomic de Consell.  Observers A. Lopez, R. Pacheco,
    J. Forteza.  0.41-m f/4 reflector + CCD.
649 Powell Observatory, Louisburg.  Observers R. Fredrick, R. Trentman,
    A. Robertson.  0.75-m Newtonian reflector + CCD.
704 Lincoln Laboratory ETS, New Mexico.  Observers M. Blythe, F. Shelly,
    M. Bezpalko, R. Huber, L. Manguso, D. Torres, R. Kracke, M. McCleary,
    H. Stange, A. Milner.  Measurers J. Stuart, R. Sayer, J. Evans, J. Kommers.
    1.0-m f/2.15 reflector + CCD.
711 McDonald Observatory.  Observer J. G. Ries.  0.76-m reflector + CCD
    + prime-focus corrector.
854 Sabino Canyon Observatory, Tucson.  Observer J. E. McGaha.  0.36-m f/10.0
    Schmidt-Cassegrain + CCD.
G90 Three Buttes Observatory, Tucson.  Observer G. R. Jones.  0.40-m
    Ritchey-Chretien + CCD.
H06 New Mexico Skies Observatory.  Observers R. Hutsebaut, J. Bedient.
    Measurer R. Hutsebaut.  0.25-m reflector + CCD, 0.30-m reflector + CCD.
J95 Great Shefford.  Observer P. Birtwhistle.  0.30-m f/6.3 Schmidt-Cassegrain
    + CCD.

Orbital elements:
2004 TL10                                                            PHA 0.006
Epoch 2004 Oct. 2.0 TT = JDT 2453280.5                  MPC
M   6.25882              (2000.0)            P               Q
n   0.21865963     Peri.  322.51867     +0.90299558     +0.42829957
a   2.7287074      Node    12.25970     -0.34510643     +0.77021954
e   0.6606354      Incl.    9.22368     -0.25593074     +0.47256888
P   4.51           H   21.4           G   0.15
From 28 observations 2004 Oct. 8-9.

Ephemeris:
2004 TL10                a,e,i = 2.73, 0.66, 9                   q = 0.9260
Date    TT    R. A. (2000) Decl.     Delta      r     Elong.  Phase     V
2004 10 02    06 05.96   +25 26.2    0.073    1.013    97.7    78.2    18.5
2004 10 12    04 32.71   +38 28.4    0.129    1.077   124.9    49.5    19.0
2004 10 22    03 44.42   +41 12.2    0.194    1.151   140.4    33.4    19.5
2004 11 01    03 14.88   +41 01.7    0.267    1.234   151.4    22.7    20.1
2004 11 11    02 56.42   +39 42.0    0.350    1.321   157.6    16.6    20.6
2004 11 21    02 46.31   +37 58.5    0.446    1.411   157.7    15.4    21.2
2004 12 01    02 42.79   +36 17.0    0.556    1.502   152.7    17.5    21.9

Kyle E. Smalley              (C) Copyright 2004 MPC           M.P.E.C. 2004-T37

Read MPEC 2004-T36 Read MPEC 2004-T38


Our Web policy. Index to the CBAT/MPC/ICQ pages.


Valid HTML 4.01!